Tracking 35237 objects as of 5-Sep-2026
HD Live streaming from Space Station
objects crossing your sky now

COSMOS 1408 DEB

Track COSMOS 1408 DEB now!
10-day predictions


NORAD ID: 57286
Int'l Code: 1982-092CCG
Launch date: September 16, 1982
Source: Commonwealth of Independent States (former USSR) (CIS)
Launch site: PLESETSK MISSILE AND SPACE COMPLEX (PKMTR)

Note: This is SATELLITE DEBRIS
Your satellite tracking list
Your tracking list is empty




NASA's NSSDC Master Catalog

Two Line Element Set (TLE):
1 57286U 82092CCG 24063.68671471  .00010003  00000-0  62653-3 0  9993
2 57286  82.5593  52.7317 0175349 135.6874 225.8543 14.97251217 35983
Source of the keplerian elements: AFSPC